KEPLER-6 (ROCINANTE)

Last updated on Thu Apr 22 2021 00:02:03 GMT+0000 (Coordinated Universal Time)

1 47955U 21022Z 21111.28652149 .00001592 00000-0 11379-3 0 9991 2 47955 97.5608 14.5801 0022134 143.0318 217.2440 15.05715469 4173
UTC large
Height (km)
Speed (km/s)
/
Latitude / Longitude
Inclination (degrees)
Orbital Period (minutes)
Azimuth
Elevation
Range (km)
Doppler Factor

Next 0 passes for location: London (51.5072 / 0.1276)

Sorry there are no passes over London.